Terminal Aerodrome Forecast
Issued by NWS

Home | Current Version | Previous Version | Text Only | Print | Product List | Glossary On
Versions: 1 2 3 4 5 6 7 8 9 10 11 12 13 14 15 16 17 18 19 20 21 22 23 24 25 26 27 28 29 30 31 32 33 34 35 36 37 38 39 40 41 42 43 44 45 46 47 48 49 50
000
FTUS43 KMKX 210958 AAA
TAFUES
TAF AMD
KUES 210958Z 2110/2206 VRB03KT P6SM SCT014 BKN060
      TEMPO 2111/2115 SHRA
     FM211500 VRB03KT P6SM SCT030 BKN090
     FM212100 17005KT P6SM TSRA BKN035CB
     FM220200 11004KT P6SM TSRA BKN035CB=

USA.gov is the U.S. government's official web portal to all federal, state and local government web resources and services.